Location: Roc des P�zouls
(43.9667°N, 3.5500°E)
Time: 09:13:47
(UTC+00:00)

Radarsat Rocket - Pass Details

Date: 14 November 2019
Orbit: 933 x 1492 km, 100.6° (Epoch: 07 December)

Event Time Altitude Azimuth Distance (km) Brightness Sun altitude
Rises 05:33:47 0° 18° (NNE) 3,648 7.1 -11.9°
Reaches altitude 10° 05:36:17 10° 22° (NNE) 2,671 6.4 -11.4°
Maximum altitude 05:42:06 66° 105° (ESE) 1,016 4.4 -10.4°
Drops below altitude 10° 05:47:57 10° 187° (S) 2,680 6.4 -9.4°
Sets 05:50:26 0° 190° (S) 3,661 7.1 -9.0°
